GFSFLT1_925_thetae_132.txt.gz
Theta_e
339 338 339 342 342 342 342 341 342 341 341 342 341 339 340 340 340 340 338 337 339 340 341 341 340 341 342 340 337 339 339 340 341
339 338 338 341 338 341 341 341 341 343 342 343 340 339 338 338 339 339 339 339 338 336 339 339 340 340 341 341 340 339 340 338 337
338 338 338 337 338 340 340 339 339 341 341 339 338 338 337 338 338 338 338 337 339 338 337 337 334 338 339 339 340 339 338 338 337
337 336 338 339 338 340 340 338 338 339 337 337 337 337 337 336 336 336 336 336 336 337 338 337 336 335 335 336 337 337 338 338 338
337 334 337 339 339 340 338 336 337 336 335 334 332 333 334 333 333 333 332 333 333 333 331 332 333 334 335 335 333 334 335 335 336
337 332 334 338 337 338 336 335 334 331 329 331 330 330 330 330 329 329 330 330 329 328 328 327 327 327 327 329 330 331 331 331 332
334 332 331 337 336 337 335 334 329 325 327 328 328 327 327 327 328 328 328 328 327 327 327 326 326 326 325 325 324 324 324 326 328
333 332 330 336 334 336 332 327 324 324 326 326 325 325 325 326 327 327 327 327 326 326 325 325 324 324 323 322 322 322 323 322 322
332 331 327 333 330 333 327 323 321 322 323 323 324 325 325 326 325 326 326 326 325 325 324 323 322 321 321 321 320 320 320 320 320
331 330 325 330 329 327 324 322 320 321 322 323 324 324 324 324 325 325 325 324 324 324 323 322 321 321 320 319 319 318 318 318 318
329 327 324 329 327 325 324 321 319 321 321 323 323 324 324 323 323 323 323 323 323 323 322 321 320 320 319 318 317 317 317 316 316
327 321 323 327 324 322 323 321 319 320 322 322 322 323 323 322 323 322 321 321 321 321 321 320 320 319 318 317 317 316 316 316 315
326 315 323 323 321 322 322 322 320 320 321 321 322 321 321 321 321 320 320 319 319 319 320 320 319 318 318 316 315 315 315 315 314
326 315 322 320 320 321 323 322 320 320 321 321 321 321 320 320 319 318 317 318 318 318 318 318 318 318 317 316 315 314 313 313 313
327 318 321 318 319 319 323 322 320 320 320 320 319 319 319 318 317 316 315 315 316 316 314 315 316 316 316 315 314 313 312 311 311
325 318 318 316 318 316 322 321 319 319 319 318 316 316 316 316 314 311 311 311 309 310 312 311 312 311 309 310 311 312 311 310 310
325 314 315 314 315 316 320 321 318 317 317 315 313 309 312 314 313 312 311 310 308 308 307 308 309 309 306 306 305 305 308 309 308
325 319 314 313 314 315 320 321 318 316 316 315 310 305 308 308 311 313 312 311 310 308 309 308 308 308 307 306 305 305 304 305 306
327 325 320 312 314 313 318 319 317 317 314 312 310 310 309 308 308 308 310 311 311 310 309 309 309 308 308 307 305 305 304 304 303
327 326 319 310 311 312 312 314 314 315 315 311 309 309 309 309 308 308 307 308 309 309 309 309 309 308 308 307 306 304 304 303 303

GFSFLT1_925_thetae_138.txt.gz
Theta_e
344 345 345 344 344 344 344 343 343 343 341 341 342 341 340 339 337 337 340 342 343 342 342 341 340 341 340 339 341 343 343 342 340
344 344 343 343 343 343 343 343 341 342 342 342 339 340 340 341 340 337 336 339 340 341 341 341 341 341 341 339 339 342 342 342 338
342 343 343 342 342 342 342 342 342 341 342 339 337 339 339 338 338 339 338 338 338 338 339 338 338 339 339 339 339 340 341 341 341
339 339 340 340 341 341 339 338 340 340 340 336 337 338 337 336 334 335 336 335 336 337 336 336 336 335 336 337 337 338 339 340 340
337 334 338 337 341 340 339 339 340 340 337 337 335 334 335 334 332 331 331 331 331 332 332 332 332 332 332 332 334 335 336 337 337
336 338 336 340 340 339 337 338 337 337 335 334 332 333 333 330 329 329 329 330 329 329 328 328 328 328 328 329 329 329 331 333 334
335 338 337 339 339 338 336 337 334 335 335 332 332 332 330 328 328 328 328 329 328 327 327 327 326 326 326 326 326 326 327 327 328
333 338 337 338 336 336 334 332 330 330 331 332 331 329 327 327 327 327 327 327 327 326 326 325 325 325 325 324 324 324 324 323 323
331 335 336 335 335 334 331 328 327 327 327 327 328 326 326 326 326 327 327 326 326 325 325 324 323 323 322 322 323 323 322 322 322
331 334 336 335 332 331 327 326 326 326 326 326 324 324 325 325 325 326 325 325 325 324 324 323 322 322 321 321 321 321 321 320 320
332 332 334 334 332 327 325 323 324 325 324 323 324 324 325 324 324 324 324 324 324 324 323 322 322 321 321 321 320 320 320 320 319
331 330 332 331 329 325 323 321 322 323 323 323 323 323 323 323 323 323 323 323 323 323 322 321 321 320 320 319 319 319 319 318 318
331 328 330 329 327 325 323 321 322 323 323 322 322 322 322 322 322 322 322 321 320 321 321 321 320 319 319 318 318 317 317 317 317
329 327 329 327 326 325 323 322 321 322 322 322 321 321 320 320 319 319 320 321 320 320 319 320 319 319 318 317 317 316 316 316 315
327 326 326 325 325 324 324 322 321 321 321 320 320 320 319 318 317 317 317 319 318 318 318 318 317 317 316 317 316 316 315 314 314
325 325 324 324 325 324 324 323 322 321 320 319 319 318 317 317 317 316 315 316 316 316 317 316 316 315 309 312 314 314 314 313 313
323 322 322 323 324 324 324 322 322 321 318 318 317 318 316 315 314 314 314 314 313 314 314 314 315 313 312 309 305 307 311 311 311
322 319 321 321 323 323 323 323 322 320 319 318 317 318 318 316 315 314 313 313 311 311 311 311 312 313 311 309 307 305 305 308 309
323 319 320 319 322 323 323 323 322 320 319 317 314 315 316 317 317 314 314 313 313 311 310 310 311 311 312 310 308 306 305 305 304
322 317 316 317 319 321 323 323 323 321 319 317 315 314 313 314 314 316 314 312 310 310 310 310 311 311 311 311 310 307 305 305 304

GFSFLT1_925_thetae_141.txt.gz
Theta_e
346 346 345 345 344 344 344 344 344 342 342 342 341 341 338 337 338 339 341 341 342 342 342 341 340 340 341 341 342 342 342 342 341
346 345 344 344 344 344 344 344 343 343 342 340 340 340 339 339 338 338 339 340 340 340 341 341 341 339 340 342 341 342 341 339 340
344 344 343 343 343 343 342 343 342 342 339 339 339 338 337 337 338 338 338 337 339 339 338 338 338 339 338 340 340 341 341 338 338
343 343 342 342 342 342 342 342 341 341 338 338 338 336 334 334 335 335 335 335 336 335 335 335 334 335 336 338 338 339 339 340 339
341 341 341 342 342 341 340 341 340 340 336 336 334 334 332 332 331 331 330 332 331 330 330 330 332 332 332 332 334 335 336 337 337
338 337 337 341 340 340 340 339 340 337 335 333 334 332 330 330 329 330 330 330 329 329 329 329 328 329 329 329 330 331 331 332 332
336 339 336 339 339 338 339 337 336 336 334 333 332 330 329 328 328 328 328 329 328 327 327 327 327 327 326 326 326 326 327 327 328
338 338 337 338 337 338 337 336 336 334 333 332 330 328 327 328 328 326 327 327 327 326 326 326 325 325 325 325 325 324 324 324 324
335 337 336 337 337 335 332 330 329 329 328 329 328 326 326 326 326 326 326 326 326 325 325 324 324 324 324 323 323 323 322 322 322
332 337 336 337 336 332 329 327 327 326 326 327 325 325 325 326 325 324 325 325 325 325 324 324 324 323 323 323 323 322 322 321 321
331 333 335 334 332 329 326 325 325 326 325 324 324 325 325 325 324 325 324 324 324 324 324 323 323 323 322 322 322 321 321 320 320
331 332 334 334 331 327 324 324 324 324 324 324 324 324 324 324 324 324 324 323 323 323 323 322 322 321 321 321 320 320 320 319 319
333 332 334 332 329 325 322 322 323 323 323 323 323 323 323 323 323 322 322 321 322 321 321 321 321 320 320 319 319 319 318 318 318
332 331 332 331 326 324 322 322 323 323 323 322 322 322 321 321 321 322 322 321 321 321 320 319 320 320 319 319 318 318 317 317 317
332 330 330 328 326 325 323 322 322 322 322 321 321 321 320 319 319 319 320 322 320 318 318 318 318 318 318 318 317 316 316 316 315
329 329 328 327 326 325 324 322 321 322 320 320 320 319 319 318 318 317 317 317 317 318 318 318 317 311 310 315 316 315 315 314 314
328 327 326 326 326 326 324 322 322 321 320 320 318 319 317 317 316 316 315 316 315 315 315 316 315 314 313 307 306 310 313 312 312
326 325 325 326 326 326 325 323 323 321 319 318 318 319 318 316 316 315 315 314 313 313 313 313 313 314 313 310 309 306 306 308 309
326 323 323 324 325 325 325 324 323 321 320 319 318 317 317 318 318 315 314 314 313 312 312 311 312 313 313 312 311 309 306 305 305
321 320 320 323 324 325 325 324 323 322 321 320 318 316 315 316 317 318 315 314 314 313 312 311 312 312 312 312 312 311 307 305 305

GFSFLT1_925_thetae_144.txt.gz
Theta_e
346 345 344 344 344 344 344 344 341 338 340 339 338 337 339 340 339 339 340 340 341 342 340 340 341 341 342 340 340 341 341 341 339
345 344 342 343 343 344 343 343 342 343 340 339 337 336 337 337 338 338 338 338 339 340 340 339 340 341 341 340 339 340 341 340 339
344 343 343 343 343 343 342 341 339 339 338 337 337 337 336 335 335 336 337 336 337 337 337 337 337 339 340 341 340 340 339 339 339
343 343 342 342 342 342 341 342 338 337 337 334 333 334 332 332 331 332 332 332 333 332 332 334 334 336 337 338 339 339 339 338 339
340 341 342 342 342 341 340 341 336 337 334 333 333 330 329 329 329 329 329 330 331 330 330 331 332 333 333 334 335 335 336 336 336
338 340 339 341 340 340 339 340 335 334 334 332 330 329 328 328 328 328 329 329 329 329 329 329 329 329 329 330 330 331 331 332 332
336 337 337 339 339 339 338 337 335 333 332 331 330 328 327 327 327 327 328 328 328 327 327 327 327 327 327 327 327 327 327 327 328
336 337 335 337 336 337 335 334 336 331 331 329 328 328 327 326 326 326 326 327 327 326 326 326 325 325 325 325 324 324 324 324 324
334 336 334 336 335 335 334 333 332 333 330 329 328 326 325 325 325 325 326 326 326 325 325 325 325 324 324 324 324 323 323 323 322
330 334 336 335 335 334 330 328 327 327 327 327 326 326 326 324 324 324 325 325 325 325 325 325 324 324 324 324 323 323 323 322 322
324 325 334 335 335 331 327 326 326 326 326 325 326 326 324 323 324 323 324 324 325 325 325 324 324 324 323 323 322 322 321 321 321
326 325 334 334 328 326 325 325 326 324 324 325 325 325 324 324 323 323 323 323 323 324 324 323 323 323 322 321 321 321 320 320 320
322 322 332 333 327 325 324 325 324 323 324 324 324 324 324 324 323 322 321 322 321 322 322 322 322 321 321 321 320 320 319 319 319
322 327 332 332 326 323 322 324 323 324 323 323 323 323 323 323 322 322 321 321 320 320 320 320 320 321 320 320 319 319 318 318 318
329 331 332 331 325 323 322 324 323 323 322 322 322 321 321 321 322 322 322 320 317 316 316 316 318 319 319 319 318 318 317 317 316
333 331 332 328 325 322 322 323 323 322 322 321 320 319 319 319 319 320 320 320 319 319 319 316 312 310 315 317 317 317 316 315 315
332 331 330 326 325 323 322 322 323 322 321 320 319 315 317 318 317 317 317 317 317 317 316 317 315 314 313 307 309 314 314 313 313
331 330 328 326 325 324 322 322 322 320 320 319 317 315 315 316 316 316 316 315 315 315 314 315 314 313 313 311 309 307 308 310 310
329 328 327 326 325 325 323 322 321 319 319 318 318 317 317 313 313 315 315 313 313 313 313 311 313 313 313 312 311 310 307 305 305
326 325 325 326 325 325 323 323 322 320 319 319 317 316 316 316 314 312 314 314 313 313 312 312 312 312 313 313 312 312 311 308 306

GFSFLT1_925_thetae_147.txt.gz
Theta_e
346 346 346 345 344 344 342 339 338 338 337 339 341 337 337 338 338 338 338 338 340 341 342 342 341 341 341 340 341 341 341 337 336
345 344 343 344 344 343 342 343 341 338 336 336 336 335 335 337 336 335 335 336 338 339 341 341 342 341 341 338 340 341 342 341 339
343 342 342 343 343 343 341 343 339 337 337 335 335 333 333 333 333 333 333 333 336 336 338 340 340 339 340 339 339 340 341 340 340
342 342 342 342 342 341 338 337 337 334 336 333 332 330 329 329 329 330 331 333 334 334 333 335 337 337 338 338 337 338 338 339 339
341 340 341 341 341 339 338 336 335 333 331 330 329 328 328 327 328 329 329 330 330 332 332 332 333 334 334 334 334 334 335 334 335
338 339 341 340 341 338 337 335 333 332 331 329 328 326 327 327 327 328 329 329 329 329 329 330 330 330 330 331 331 331 332 332 332
338 336 339 340 340 337 336 334 333 331 330 328 327 326 326 326 326 327 328 328 328 328 328 327 327 327 327 327 327 327 327 327 328
337 337 336 338 336 337 335 333 332 330 329 327 326 325 325 326 325 326 326 327 327 326 326 326 326 326 325 325 325 324 324 324 324
333 336 336 335 334 334 334 334 331 329 329 327 326 324 324 324 324 325 325 326 326 326 326 325 325 325 325 325 325 324 324 324 324
325 332 334 335 332 332 334 331 332 330 328 326 325 324 324 323 324 324 325 326 326 326 326 326 325 325 324 324 324 324 323 323 323
322 331 333 334 334 333 331 327 328 326 326 326 324 323 323 323 323 323 324 324 325 326 326 325 325 324 324 323 323 322 322 322 321
327 322 328 333 334 333 326 326 325 324 325 326 324 322 323 323 323 323 324 324 324 325 325 324 324 323 323 322 322 322 321 321 320
322 324 326 331 328 324 325 325 324 325 325 324 323 322 322 322 322 322 323 322 323 323 323 323 323 323 322 321 321 321 320 320 319
324 326 325 331 327 325 325 324 324 324 324 324 324 323 322 321 321 321 321 321 321 321 321 322 322 322 321 321 320 320 319 319 319
326 321 326 332 326 324 324 323 324 323 323 323 324 323 323 322 321 320 320 318 318 318 318 320 320 321 320 320 320 319 318 318 317
328 325 326 330 325 323 323 323 323 322 322 321 321 321 322 322 321 321 320 316 317 316 316 314 316 319 319 319 319 318 317 316 316
329 326 328 331 324 322 324 323 322 321 321 319 318 315 317 320 321 321 320 319 318 318 317 314 313 312 310 312 315 316 315 314 314
331 330 331 331 323 322 323 323 322 320 320 320 317 313 314 315 319 318 317 317 318 317 317 316 314 313 312 310 308 308 310 312 312
333 332 331 325 322 322 323 322 322 321 319 318 317 317 316 312 313 315 316 315 316 314 313 312 313 313 312 312 311 310 309 307 307
332 330 330 325 323 322 322 322 321 320 319 317 317 315 316 315 312 311 311 312 312 312 312 312 312 312 312 312 312 311 311 309 306